This is the latest recevied weather packets stored in our database for station/object N8XHB. If no packets are shown the sender has not sent any weather packets the latest 10 day(s).
| Time | Temp. | Humidity | Pressure | Rain* | Wind** | Luminosity | Snow |
|---|---|---|---|---|---|---|---|
| 1777983907 | 10.56° C | 64% | 1006 hPa | 0 mm | - | 98 W/m² | - |
| 1777983604 | 10.56° C | 64% | 1005.9 hPa | 0 mm | - | 193 W/m² | - |
| 1777983301 | 10° C | 65% | 1005.6 hPa | 0 mm | - | 198 W/m² | - |
| 1777982997 | 10° C | 65% | 1005.6 hPa | 0 mm | - | 88 W/m² | - |
| 1777982693 | 10° C | 64% | 1005.3 hPa | 0 mm | - | 56 W/m² | - |
| 1777982392 | 10° C | 64% | 1005.2 hPa | 0 mm | - | 58 W/m² | - |
| 1777982089 | 10° C | 64% | 1005.2 hPa | 0 mm | - | 89 W/m² | - |
| 1777981787 | 10° C | 65% | 1005.5 hPa | 0 mm | - | 101 W/m² | - |
| 1777981483 | 10° C | 65% | 1005.4 hPa | 0 mm | - | 62 W/m² | - |
| 1777981180 | 10° C | 64% | 1005.2 hPa | 0 mm | - | 37 W/m² | - |
| 1777980876 | 10° C | 66% | 1005.1 hPa | 0 mm | - | 63 W/m² | - |
| 1777980572 | 10° C | 66% | 1005.1 hPa | 0 mm | - | 43 W/m² | - |
| 1777980270 | 10° C | 66% | 1004.8 hPa | 0 mm | - | 43 W/m² | - |
| 1777979966 | 10° C | 66% | 1004.8 hPa | 0 mm | - | 33 W/m² | - |
| 1777979661 | 9.44° C | 67% | 1004.4 hPa | 0 mm | - | 35 W/m² | - |
| 1777979357 | 9.44° C | 67% | 1004.6 hPa | 0 mm | - | 40 W/m² | - |
| 1777979054 | 9.44° C | 67% | 1004.7 hPa | 0 mm | - | 24 W/m² | - |
| 1777978751 | 9.44° C | 68% | 1004.3 hPa | 0 mm | - | 19 W/m² | - |
| 1777978448 | 9.44° C | 68% | 1004.2 hPa | 0 mm | - | 17 W/m² | - |
| 1777978144 | 9.44° C | 67% | 1004.1 hPa | 0 mm | - | 10 W/m² | - |
| 1777977841 | 9.44° C | 67% | 1003.9 hPa | 0 mm | - | 8 W/m² | - |
| 1777977537 | 9.44° C | 67% | 1004.1 hPa | 0 mm | - | 5 W/m² | - |
| 1777977235 | 9.44° C | 66% | 1004 hPa | 0 mm | - | 3 W/m² | - |
| 1777976932 | 9.44° C | 65% | 1003.9 hPa | 0 mm | - | 2 W/m² | - |
| 1777976629 | 9.44° C | 64% | 1003.6 hPa | 0 mm | - | 1 W/m² | - |
* Rain latest hour (hover to see other rain measurements)
** Current wind speed in m/s (hover to see current wind gust speed)